Volver al catálogo

HIMAWARI 2

GMS 2

ActivoMeteoGEO
NORAD 12677·PAYLOAD·🇯🇵 Japan

Lanzado Aug 10, 1981 desde Tanegashima Space Center

Loading…

TLE

ActualizadoSource: Space-Track

Época: Sep 14, 2026, 14:14 UTC

1 12677U 81076A   26257.59338775 -.00000113  00000-0  00000-0 0  9990
2 12677   7.7970 303.5635 0011610 323.1116  32.7710  0.99548462133112

Sigue HIMAWARI 2 en tiempo real con AllMySat

Download on the App Store